This is the latest recevied weather packets stored in our database for station/object KE0QIB. If no packets are shown the sender has not sent any weather packets the latest 1 day(s).
| Time | Temp. | Humidity | Pressure | Rain* | Wind** | Luminosity | Snow |
|---|---|---|---|---|---|---|---|
| 1778016712 | 6.67° C | 48% | 1001 hPa | 0 mm | 1.34 m/s, 0° | - | - |
| 1778016412 | 6.11° C | 47% | 1001 hPa | 0 mm | 1.34 m/s, 259° | - | - |
| 1778016112 | 6.11° C | 47% | 1000.9 hPa | 0 mm | 1.79 m/s, 0° | - | - |
| 1778015812 | 6.67° C | 44% | 1000.9 hPa | 0 mm | 1.79 m/s, 355° | - | - |
| 1778015512 | 6.67° C | 43% | 1000.9 hPa | 0 mm | 1.79 m/s, 0° | - | - |
| 1778015212 | 6.67° C | 43% | 1001 hPa | 0 mm | 1.34 m/s, 13° | - | - |
| 1778014912 | 7.22° C | 42% | 1001 hPa | 0 mm | 0.89 m/s, 155° | - | - |
| 1778014612 | 7.22° C | 42% | 1001 hPa | 0 mm | 0.89 m/s, 173° | - | - |
| 1778014312 | 7.22° C | 46% | 1001 hPa | 0 mm | 1.34 m/s, 57° | - | - |
| 1778014012 | 6.67° C | 44% | 1001 hPa | 0 mm | 1.79 m/s, 94° | - | - |
| 1778013712 | 6.67° C | 47% | 1001 hPa | 0 mm | 1.79 m/s, 65° | - | - |
| 1778013412 | 6.67° C | 46% | 1000.9 hPa | 0 mm | 1.79 m/s, 0° | - | - |
| 1778013112 | 6.67° C | 47% | 1000.9 hPa | 0 mm | 1.79 m/s, 275° | - | - |
| 1778012812 | 6.67° C | 45% | 1000.9 hPa | 0 mm | 1.34 m/s, 0° | - | - |
| 1778012512 | 6.67° C | 42% | 1000.9 hPa | 0 mm | 1.34 m/s, 25° | - | - |
| 1778012212 | 7.22° C | 42% | 1000.9 hPa | 0 mm | 0.89 m/s, 216° | - | - |
| 1778011912 | 7.22° C | 42% | 1000.9 hPa | 0 mm | 0.89 m/s, 19° | - | - |
| 1778011612 | 6.67° C | 45% | 1000.9 hPa | 0 mm | 0.89 m/s, 14° | - | - |
| 1778011312 | 6.67° C | 43% | 1000.9 hPa | 0 mm | 0.89 m/s, 42° | - | - |
| 1778011012 | 7.22° C | 43% | 1000.9 hPa | 0 mm | 1.34 m/s, 211° | - | - |
| 1778010712 | 7.22° C | 42% | 1000.7 hPa | 0 mm | 1.34 m/s, 5° | - | - |
| 1778010412 | 7.22° C | 42% | 1000.7 hPa | 0 mm | 1.79 m/s, 67° | - | - |
| 1778010112 | 7.22° C | 41% | 1000.7 hPa | 0 mm | 1.79 m/s, 355° | - | - |
| 1778009812 | 7.78° C | 39% | 1000.9 hPa | 0 mm | 1.34 m/s, 66° | - | - |
| 1778009512 | 7.22° C | 40% | 1000.9 hPa | 0 mm | 1.34 m/s, 10° | - | - |
* Rain latest hour (hover to see other rain measurements)
** Current wind speed in m/s (hover to see current wind gust speed)